Overview Statistics Trail Chart Weather Telemetry Raw packets
 

This is the latest recevied weather packets stored in our database for station/object KY4OP-13. If no packets are shown the sender has not sent any weather packets the latest 10 day(s).

<< 110 111 112 113 114 >>
Time Temp. Humidity Pressure Rain* Wind** Luminosity Snow
1787762116 27.22° C 68% 1021 hPa 0 mm - - -
1787761811 26.11° C 74% 1021.4 hPa 0 mm - - -
1787761506 25.56° C 74% 1021.5 hPa 0 mm - - -
1787761201 26.67° C 72% 1021.4 hPa 0 mm - - -
1787760895 26.67° C 69% 1021.5 hPa 0 mm - - -
1787760592 26.67° C 73% 1021.5 hPa 0 mm - - -
1787760287 26.67° C 72% 1021.5 hPa 0 mm - - -
1787759984 26.67° C 73% 1021.4 hPa 0 mm - - -
1787759679 26.11° C 72% 1021.5 hPa 0 mm - - -
1787759375 26.11° C 71% 1021.6 hPa 0 mm - - -
1787759070 26.11° C 72% 1021.7 hPa 0 mm - - -
1787758769 26.11° C 70% 1021.7 hPa 0 mm - - -
1787758465 26.11° C 73% 1021.6 hPa 0 mm - - -
1787758164 26.11° C 71% 1021.6 hPa 0 mm - - -
1787757860 26.11° C 70% 1021.8 hPa 0 mm - - -
1787757555 25.56° C 76% 1021.7 hPa 0 mm - - -
1787757255 25.56° C 70% 1021.9 hPa 0 mm - - -
1787756952 25° C 70% 1021.8 hPa 0 mm - - -
1787756649 25.56° C 69% 1021.7 hPa 0 mm - - -
1787756348 25.56° C 71% 1021.6 hPa 0 mm - - -
1787756043 25.56° C 69% 1021.7 hPa 0 mm - - -
1787755737 25.56° C 70% 1021.8 hPa 0 mm - - -
1787755432 25° C 74% 1021.9 hPa 0 mm - - -
1787755131 24.44° C 75% 1022 hPa 0 mm - - -
1787754825 24.44° C 74% 1021.8 hPa 0 mm - - -

* Rain latest hour (hover to see other rain measurements)
** Current wind speed in m/s (hover to see current wind gust speed)